Total_Precipitation_Accumulation
0.01 0.00 0.00 0.01 0.01 0.00 0.00 0.00 0.01 0.03 0.04 0.06 0.08 0.08 0.08 0.07 0.06 0.06 0.06 0.06 0.06 0.08 0.11 0.15 0.18 0.21 0.25 0.25 0.18 0.10 0.08 0.07 0.05 0.03 0.02 0.02 0.02 0.02 0.03 0.03 0.01 0.01 0.00
0.01 0.00 0.01 0.01 0.02 0.01 0.00 0.01 0.02 0.03 0.05 0.05 0.05 0.05 0.06 0.05 0.05 0.06 0.07 0.08 0.09 0.11 0.11 0.13 0.17 0.20 0.21 0.19 0.14 0.09 0.06 0.04 0.03 0.04 0.06 0.10 0.15 0.12 0.10 0.08 0.04 0.03 0.00
0.01 0.00 0.01 0.01 0.02 0.02 0.01 0.01 0.02 0.04 0.06 0.07 0.06 0.05 0.04 0.03 0.03 0.04 0.06 0.09 0.14 0.16 0.14 0.14 0.14 0.16 0.16 0.12 0.08 0.05 0.02 0.02 0.03 0.06 0.14 0.22 0.31 0.27 0.23 0.20 0.20 0.12 0.03
0.01 0.00 0.00 0.01 0.02 0.04 0.03 0.03 0.03 0.04 0.08 0.11 0.12 0.10 0.07 0.03 0.03 0.05 0.07 0.09 0.13 0.15 0.13 0.11 0.10 0.10 0.08 0.05 0.04 0.02 0.01 0.01 0.02 0.07 0.12 0.18 0.26 0.27 0.23 0.25 0.32 0.30 0.21
0.02 0.00 0.00 0.01 0.02 0.05 0.06 0.06 0.05 0.06 0.10 0.14 0.17 0.17 0.11 0.05 0.04 0.07 0.10 0.11 0.12 0.15 0.17 0.14 0.09 0.06 0.04 0.03 0.03 0.01 0.01 0.01 0.03 0.11 0.22 0.30 0.36 0.37 0.28 0.25 0.31 0.36 0.35
0.01 0.00 0.00 0.01 0.02 0.05 0.07 0.08 0.08 0.09 0.12 0.17 0.20 0.19 0.12 0.06 0.05 0.08 0.12 0.15 0.17 0.20 0.25 0.21 0.20 0.13 0.08 0.05 0.03 0.02 0.02 0.03 0.07 0.22 0.30 0.33 0.35 0.32 0.23 0.19 0.22 0.33 0.35
0.01 0.00 0.00 0.01 0.03 0.06 0.08 0.07 0.07 0.10 0.12 0.17 0.20 0.16 0.10 0.06 0.04 0.07 0.14 0.17 0.20 0.24 0.24 0.21 0.19 0.14 0.12 0.10 0.08 0.09 0.10 0.13 0.17 0.27 0.29 0.27 0.24 0.17 0.14 0.12 0.12 0.13 0.18
0.01 0.00 0.00 0.01 0.03 0.10 0.15 0.09 0.05 0.06 0.09 0.14 0.18 0.15 0.10 0.07 0.09 0.13 0.15 0.18 0.21 0.19 0.16 0.17 0.16 0.13 0.15 0.17 0.17 0.18 0.18 0.20 0.18 0.19 0.17 0.14 0.12 0.09 0.11 0.13 0.09 0.06 0.07
0.06 0.05 0.02 0.02 0.02 0.05 0.06 0.03 0.02 0.03 0.06 0.11 0.16 0.20 0.16 0.13 0.20 0.23 0.21 0.21 0.25 0.20 0.16 0.17 0.18 0.15 0.19 0.23 0.19 0.15 0.14 0.12 0.08 0.06 0.05 0.04 0.04 0.03 0.04 0.05 0.05 0.04 0.03
0.29 0.38 0.16 0.09 0.04 0.02 0.01 0.01 0.01 0.01 0.02 0.05 0.08 0.12 0.13 0.15 0.19 0.20 0.17 0.16 0.19 0.14 0.10 0.10 0.12 0.12 0.10 0.08 0.05 0.03 0.02 0.02 0.01 0.00 0.00 0.01 0.01 0.00 0.00 0.01 0.01 0.03 0.02
0.52 0.71 0.49 0.18 0.04 0.01 0.01 0.00 0.00 0.00 0.00 0.01 0.02 0.04 0.08 0.15 0.16 0.15 0.10 0.09 0.07 0.04 0.02 0.02 0.02 0.01 0.01 0.01 0.00 0.00 0.00 0.00 0.00 0.00 0.00 0.00 0.00 0.00 0.00 0.00 0.00 0.00 0.01
0.63 0.60 0.46 0.11 0.02 0.01 0.00 0.01 0.01 0.01 0.01 0.02 0.02 0.04 0.09 0.12 0.13 0.09 0.04 0.03 0.01 0.00 0.00 0.00 0.00 0.00 0.00 0.00 0.00 0.00 0.00 0.00 0.00 0.00 0.00 0.00 0.00 0.00 0.00 0.00 0.00 0.00 0.00
0.56 0.31 0.16 0.10 0.06 0.03 0.01 0.01 0.01 0.01 0.01 0.01 0.02 0.03 0.06 0.06 0.04 0.02 0.00 0.00 0.00 0.00 0.00 0.00 0.00 0.00 0.00 0.00 0.00 0.00 0.00 0.00 0.00 0.00 0.00 0.00 0.00 0.00 0.00 0.00 0.00 0.00 0.00
0.30 0.22 0.12 0.10 0.06 0.04 0.02 0.01 0.01 0.01 0.01 0.01 0.01 0.01 0.03 0.04 0.02 0.01 0.01 0.00 0.00 0.00 0.00 0.00 0.00 0.00 0.00 0.00 0.00 0.00 0.00 0.00 0.00 0.00 0.00 0.00 0.00 0.00 0.00 0.00 0.00 0.01 0.00
0.27 0.27 0.14 0.10 0.07 0.04 0.02 0.01 0.01 0.01 0.01 0.00 0.00 0.00 0.01 0.01 0.01 0.01 0.01 0.01 0.00 0.00 0.00 0.00 0.00 0.00 0.00 0.00 0.00 0.00 0.00 0.00 0.00 0.00 0.00 0.00 0.00 0.00 0.00 0.00 0.01 0.01 0.01
0.45 0.43 0.19 0.08 0.03 0.02 0.01 0.00 0.00 0.01 0.02 0.02 0.02 0.02 0.01 0.02 0.02 0.02 0.01 0.02 0.01 0.01 0.01 0.00 0.00 0.00 0.00 0.00 0.00 0.00 0.00 0.00 0.00 0.00 0.00 0.00 0.00 0.00 0.01 0.01 0.01 0.01 0.01
0.60 0.57 0.24 0.07 0.02 0.01 0.01 0.00 0.01 0.01 0.03 0.04 0.05 0.04 0.02 0.02 0.01 0.01 0.01 0.01 0.01 0.00 0.00 0.00 0.00 0.00 0.00 0.00 0.00 0.00 0.01 0.01 0.01 0.01 0.01 0.01 0.02 0.02 0.02 0.02 0.02 0.03 0.02
0.90 0.90 0.38 0.08 0.02 0.01 0.01 0.01 0.01 0.02 0.02 0.03 0.03 0.02 0.01 0.01 0.00 0.00 0.00 0.00 0.00 0.01 0.01 0.01 0.01 0.01 0.02 0.02 0.02 0.03 0.03 0.04 0.04 0.04 0.04 0.05 0.05 0.05 0.04 0.04 0.04 0.03 0.03
1.35 1.18 0.47 0.13 0.05 0.03 0.02 0.01 0.01 0.01 0.01 0.01 0.01 0.01 0.01 0.00 0.00 0.00 0.00 0.01 0.01 0.02 0.03 0.05 0.07 0.06 0.06 0.06 0.06 0.06 0.05 0.05 0.06 0.06 0.06 0.06 0.06 0.05 0.05 0.04 0.03 0.03 0.03
1.77 1.33 0.60 0.33 0.21 0.10 0.05 0.03 0.03 0.02 0.02 0.02 0.02 0.01 0.01 0.01 0.01 0.02 0.02 0.03 0.03 0.04 0.07 0.09 0.10 0.08 0.07 0.05 0.04 0.03 0.04 0.04 0.05 0.05 0.04 0.04 0.03 0.03 0.02 0.02 0.02 0.02 0.03
0.81 0.74 0.60 0.47 0.33 0.24 0.18 0.12 0.07 0.05 0.04 0.03 0.03 0.04 0.05 0.05 0.06 0.07 0.06 0.06 0.06 0.06 0.06 0.05 0.05 0.05 0.04 0.03 0.02 0.02 0.01 0.01 0.02 0.01 0.01 0.01 0.01 0.01 0.01 0.01 0.01 0.01 0.01
0.45 0.56 0.57 0.50 0.39 0.30 0.24 0.16 0.13 0.10 0.08 0.09 0.11 0.14 0.12 0.12 0.10 0.09 0.08 0.05 0.05 0.04 0.03 0.03 0.03 0.02 0.01 0.01 0.01 0.01 0.00 0.00 0.00 0.00 0.00 0.00 0.00 0.00 0.00 0.00 0.00 0.00 0.00
0.33 0.48 0.52 0.43 0.34 0.27 0.23 0.20 0.19 0.16 0.15 0.17 0.20 0.21 0.17 0.15 0.12 0.09 0.06 0.03 0.02 0.01 0.01 0.01 0.01 0.01 0.01 0.01 0.01 0.01 0.01 0.01 0.00 0.00 0.00 0.00 0.00 0.00 0.00 0.00 0.00 0.00 0.00
0.32 0.39 0.40 0.32 0.24 0.21 0.19 0.18 0.18 0.19 0.20 0.20 0.15 0.15 0.12 0.07 0.05 0.03 0.02 0.01 0.01 0.00 0.00 0.00 0.01 0.01 0.01 0.00 0.00 0.01 0.01 0.01 0.02 0.01 0.00 0.00 0.00 0.00 0.00 0.00 0.00 0.00 0.00
0.26 0.28 0.27 0.22 0.19 0.15 0.13 0.12 0.14 0.13 0.12 0.07 0.04 0.03 0.02 0.01 0.01 0.00 0.00 0.01 0.00 0.00 0.00 0.00 0.00 0.00 0.00 0.00 0.00 0.01 0.01 0.01 0.02 0.04 0.02 0.01 0.00 0.00 0.00 0.00 0.00 0.00 0.00
0.15 0.16 0.15 0.14 0.13 0.11 0.09 0.08 0.07 0.04 0.02 0.01 0.00 0.00 0.00 0.00 0.00 0.00 0.00 0.00 0.00 0.00 0.00 0.00 0.00 0.01 0.01 0.01 0.02 0.02 0.02 0.03 0.03 0.04 0.05 0.03 0.01 0.00 0.00 0.00 0.00 0.00 0.01